This is the latest recevied weather packets stored in our database for station/object VK2BLR. If no packets are shown the sender has not sent any weather packets the latest 10 day(s).
| Time | Temp. | Humidity | Pressure | Rain* | Wind** | Luminosity | Snow |
|---|---|---|---|---|---|---|---|
| 1787580391 | 17.22° C | 62% | 1015.8 hPa | 0 mm | - | - | - |
| 1787579490 | 17.22° C | 63% | 1016 hPa | 0 mm | - | - | - |
| 1787578592 | 17.22° C | 63% | 1016 hPa | 0 mm | - | - | - |
| 1787577691 | 17.22° C | 63% | 1016.1 hPa | 0 mm | - | - | - |
| 1787576792 | 17.22° C | 63% | 1016.4 hPa | 0 mm | - | - | - |
| 1787575891 | 17.78° C | 59% | 1016.7 hPa | 0 mm | - | - | - |
| 1787574992 | 18.33° C | 57% | 1016.7 hPa | 0 mm | - | - | - |
| 1787574091 | 17.78° C | 59% | 1016.9 hPa | 0 mm | - | - | - |
| 1787573192 | 17.78° C | 60% | 1017 hPa | 0 mm | - | - | - |
| 1787572292 | 17.78° C | 59% | 1017.1 hPa | 0 mm | - | - | - |
| 1787571392 | 17.78° C | 60% | 1017.4 hPa | 0 mm | - | - | - |
| 1787570491 | 17.22° C | 62% | 1017.4 hPa | 0 mm | - | - | - |
| 1787569590 | 17.22° C | 65% | 1017.3 hPa | 0 mm | - | - | - |
| 1787568692 | 17.78° C | 61% | 1017.1 hPa | 0 mm | - | - | - |
| 1787567792 | 17.78° C | 61% | 1016.9 hPa | 0 mm | - | - | - |
| 1787566890 | 17.22° C | 64% | 1017.3 hPa | 0 mm | - | - | - |
| 1787565991 | 17.22° C | 65% | 1017.2 hPa | 0 mm | - | - | - |
| 1787565091 | 16.67° C | 66% | 1017 hPa | 0 mm | - | - | - |
| 1787564191 | 16.67° C | 67% | 1017.2 hPa | 0 mm | - | - | - |
| 1787563291 | 16.67° C | 66% | 1017.2 hPa | 0 mm | - | - | - |
| 1787562391 | 17.22° C | 66% | 1017.2 hPa | 0 mm | - | - | - |
| 1787561492 | 17.22° C | 68% | 1017 hPa | 0 mm | - | - | - |
| 1787560590 | 17.78° C | 64% | 1017.3 hPa | 0 mm | - | - | - |
| 1787559692 | 17.78° C | 63% | 1017.3 hPa | 0 mm | - | - | - |
| 1787558791 | 18.33° C | 62% | 1017.3 hPa | 0 mm | - | - | - |
* Rain latest hour (hover to see other rain measurements)
** Current wind speed in m/s (hover to see current wind gust speed)